Content
SEND FEEDBACK

Daily
Averages
Monthly
Summary
United States of America

GRASS VALLEY, CALIFORNIA


Home > North America > United States > California
Elevation: 2628 feet     Latitude: 39 16N     Longitude: 121 02W

WEATHER
 
SELECT A DAY
Number of Records: 62,722;   Date Range: 9/21/11 - 9/21/14
 
SHARE

PRINT THIS DATA

[ ← Previous Day ]
WEATHER ALMANAC - APRIL 8, 2013
[ Next Day → ]
[ °C ]   °F
Weather ElementAverageHighLow
Temperature45.3 °F55.4 °F (3:55 pm)37.4 °F (4:55 am)
Dewpoint29.7 °F39.2 °F (12:35 am)19.4 °F (1:15 pm)
Humidity61.3 %100 % (12:55 am)26 % (2:55 pm)
Barometer29.86 in30.01 in (10:15 pm)29.71 in (5:55 am)
Wind Speed6.5 mph19.6 mph (1:35 pm)
Wind Gust32.2 mph (1:15 pm)
Weather ElementAverage
Visibility8.7 mi
Wind DirectionSSW (202.1 °)

Weather ElementTotal
Precipitation0.37 in
Heating Degree Days18.6 (Base 65)
Averaged from 70 records on April 8, 2013
WEATHER CONDITIONS BREAKOUT
WIND DIRECTION BREAKOUT
WEATHER BY HOUR - APRIL 8, 2013
[ °C ]   °F
Local TimeTemperatureDewpointHumidityBarometerVisibilityWind DirectionWind SpeedGust SpeedPrecipitationEventsConditions
12:35 AM41.0 °F39.2 °F93 %29.74 in1.0 miCalm0.05 inOvercast
12:55 AM39.2 °F39.2 °F100 %29.74 in3.0 miSouth (180°)3.5 mph0.07 inOvercast
1:15 AM39.2 °F39.2 °F100 %29.74 in3.0 miCalm0.02 inOvercast
1:35 AM39.2 °F39.2 °F100 %29.73 in3.0 miCalm0.05 inOvercast
1:55 AM41.0 °F39.2 °F93 %29.73 in3.0 miWest (280°)3.5 mph0.07 inOvercast
2:15 AM39.2 °F39.2 °F100 %29.73 in2.5 miCalm0.02 inOvercast
2:35 AM41.0 °F39.2 °F93 %29.72 in4.0 miCalm0.02 inOvercast
2:55 AM39.2 °F39.2 °F100 %29.72 in5.0 miNNW (330°)4.6 mph0.02 inOvercast
3:15 AM39.2 °F39.2 °F100 %29.72 in4.0 miNW (320°)4.6 mphOvercast
3:35 AM39.2 °F39.2 °F100 %29.73 in2.5 miNNW (340°)9.2 mph0.02 inOvercast
3:55 AM39.2 °F37.4 °F93 %29.73 in10.0 miNorth (350°)4.6 mph0.03 inOvercast
4:15 AM39.2 °F37.4 °F93 %29.72 in10.0 miNNW (340°)5.8 mphMostly Cloudy
4:35 AM39.2 °F37.4 °F93 %29.72 in10.0 miNNW (330°)6.9 mphMostly Cloudy
4:55 AM37.4 °F37.4 °F100 %29.72 in10.0 miNW (320°)5.8 mphOvercast
5:15 AM37.4 °F37.4 °F100 %29.72 in5.0 miNW (320°)6.9 mphOvercast
5:35 AM37.4 °F37.4 °F100 %29.72 in2.5 miNNW (330°)6.9 mphOvercast
5:55 AM37.4 °F37.4 °F100 %29.71 in1.8 miNorth (360°)4.6 mphOvercast
6:15 AM37.4 °F37.4 °F100 %29.72 in10.0 miNNW (340°)5.8 mphOvercast
6:35 AM37.4 °F37.4 °F100 %29.73 in10.0 miNorth (350°)5.8 mphMostly Cloudy
6:55 AM37.4 °F37.4 °F100 %29.75 in10.0 miNNW (340°)5.8 mphMostly Cloudy
7:15 AM37.4 °F37.4 °F100 %29.77 in10.0 miNNW (340°)6.9 mphMostly Cloudy
7:35 AM37.4 °F37.4 °F100 %29.78 in10.0 miNNW (340°)5.8 mphScattered Clouds
7:55 AM37.4 °F37.4 °F100 %29.79 in10.0 miNorth (350°)4.6 mphPartly Cloudy
8:15 AM37.4 °F37.4 °F100 %29.81 in10.0 miNNW (330°)3.5 mphPartly Cloudy
8:35 AM39.2 °F37.4 °F93 %29.81 in10.0 miWest (280°)4.6 mphClear
8:55 AM39.2 °F37.4 °F93 %29.82 in10.0 miNNW (340°)4.6 mphPartly Cloudy
9:15 AM41.0 °F33.8 °F76 %29.83 in10.0 miNorth (360°)3.5 mphPartly Cloudy
9:35 AM44.6 °F35.6 °F71 %29.84 in10.0 miNNW (340°)3.5 mphClear
9:55 AM44.6 °F35.6 °F71 %29.84 in10.0 miNorth (350°)3.5 mphClear
10:15 AM44.6 °F32.0 °F61 %29.86 in10.0 miNorth (360°)5.8 mphClear
10:35 AM46.4 °F28.4 °F50 %29.86 in10.0 miNNE (30°)6.9 mph16.1 mphClear
10:55 AM46.4 °F26.6 °F46 %29.87 in10.0 miNorth (350°)8.1 mphClear
11:15 AM46.4 °F26.6 °F46 %29.88 in10.0 miNNW (340°)13.8 mph21.9 mphPartly Cloudy
11:35 AM46.4 °F26.6 °F46 %29.89 in10.0 miNNE (30°)11.5 mphClear
11:55 AM48.2 °F26.6 °F43 %29.90 in10.0 miNorth (360°)8.1 mph19.6 mphClear
12:15 PM48.2 °F24.8 °F40 %29.90 in10.0 miNorth (360°)15.0 mph23.0 mphClear
12:35 PM48.2 °F23.0 °F37 %29.90 in10.0 miNorth (10°)13.8 mph24.2 mphClear
12:55 PM50.0 °F24.8 °F37 %29.89 in10.0 miNNE (20°)11.5 mph20.7 mphClear
1:15 PM50.0 °F19.4 °F30 %29.90 in10.0 miNNE (20°)13.8 mph32.2 mphClear
1:35 PM50.0 °F19.4 °F30 %29.90 in10.0 miNorth (10°)19.6 mph31.1 mphClear
1:55 PM51.8 °F19.4 °F28 %29.90 in10.0 miNNE (30°)16.1 mph24.2 mphClear
2:15 PM51.8 °F19.4 °F28 %29.91 in10.0 miNNE (20°)9.2 mph24.2 mphClear
2:35 PM53.6 °F23.0 °F30 %29.90 in10.0 miNorth (10°)11.5 mph21.9 mphClear
2:55 PM53.6 °F19.4 °F26 %29.91 in10.0 miNorth (350°)11.5 mph23.0 mphClear
3:15 PM53.6 °F19.4 °F26 %29.91 in10.0 miNorth (10°)13.8 mph25.3 mphClear
3:55 PM55.4 °F23.0 °F29 %29.91 in10.0 miNE (50°)11.5 mph18.4 mphPartly Cloudy
4:15 PM55.4 °F23.0 °F29 %29.91 in10.0 miNNE (20°)10.4 mph20.7 mphClear
4:35 PM53.6 °F23.0 °F30 %29.91 in10.0 miNorth (10°)10.4 mph20.7 mphClear
4:55 PM55.4 °F23.0 °F29 %29.92 in10.0 miNorth (360°)9.2 mph18.4 mphClear
5:15 PM53.6 °F21.2 °F28 %29.92 in10.0 miNorth (360°)9.2 mphClear
5:35 PM53.6 °F21.2 °F28 %29.93 in10.0 miNorth (350°)10.4 mph17.3 mphClear
5:55 PM53.6 °F23.0 °F30 %29.93 in10.0 miNNW (340°)5.8 mphClear
6:15 PM53.6 °F23.0 °F30 %29.93 in10.0 miNorth (350°)9.2 mphClear
6:35 PM53.6 °F23.0 °F30 %29.94 in10.0 miNorth (10°)6.9 mph19.6 mphClear
6:55 PM51.8 °F23.0 °F33 %29.94 in10.0 miNorth (10°)5.8 mphClear
7:15 PM51.8 °F24.8 °F35 %29.95 in10.0 miNorth (10°)6.9 mphClear
7:35 PM50.0 °F24.8 °F37 %29.95 in10.0 miNorth (10°)6.9 mphClear
7:55 PM48.2 °F24.8 °F40 %29.96 in10.0 miNorth (360°)5.8 mphClear
8:15 PM48.2 °F24.8 °F40 %29.97 in10.0 miNorth (360°)5.8 mphClear
8:35 PM48.2 °F24.8 °F40 %29.98 in10.0 miNorth (360°)5.8 mphClear
8:55 PM48.2 °F26.6 °F43 %29.98 in10.0 miCalmClear
9:15 PM46.4 °F24.8 °F43 %29.99 in10.0 miCalmClear
9:35 PM46.4 °F24.8 °F43 %30.00 in10.0 miNorth (10°)3.5 mphClear
9:55 PM46.4 °F24.8 °F43 %30.00 in10.0 miCalmClear
10:15 PM46.4 °F24.8 °F43 %30.01 in10.0 miCalmClear
10:35 PM46.4 °F24.8 °F43 %30.01 in10.0 miNNW (330°)4.6 mphClear
10:55 PM46.4 °F24.8 °F43 %30.01 in10.0 miCalmClear
11:15 PM46.4 °F24.8 °F43 %30.01 in10.0 miCalmClear
11:35 PM46.4 °F24.8 °F43 %30.01 in10.0 miNNW (330°)5.8 mphClear
11:55 PM44.6 °F26.6 °F49 %30.01 in10.0 miNorth (350°)4.6 mphClear
Hourly data recorded from KGOO, located miles away from Grass Valley, California







STORIES FROM OUR PARTNERS